Home > Weather > Edmonton > Past weeks

Flag for Canada Past Weather in Edmonton, Alberta, Canada — Yesterday and Last 2 Weeks

Now
59 °F

Cool.


Feels Like: 58 °F
Forecast: 56 / 73 °F
Wind: 8 mph from Northwest

Location: Edmonton Municipal

Current Time: Jun 26, 2016 at 7:56:08 AM

Latest Report: Jun 26, 2016 at 7:00 AM


Visibility: N/A

Pressure: 30.10 "Hg (27.73 "Hg at 692m altitude)

Humidity: 80%

Dew Point: 53 °F

Location of EdmontonLocation

Past Weather in Edmonton — Graph

°F

Edmonton Temperature Yesterday

Maximum temperature yesterday: 73 °F (at 5:00 PM)
Minimum temperature yesterday: 54 °F (at 1:00 AM)
Average temperature yesterday: 62 °F

High & Low Weather Summary for the Past Weeks

 TemperatureHumidityPressure
High77 °F (Jun 20, 5:00 PM)95% (Jun 12, 4:00 AM)30.19 "Hg (Jun 12, 4:00 AM)
Low44 °F (Jun 16, 5:00 AM)19% (Jun 15, 7:00 PM)29.50 "Hg (Jun 14, 8:00 PM)
Average60 °F61%29.85 "Hg
* Reported Jun 11 6:00 AM — Jun 26 6:00 AM, Edmonton, Weather by CustomWeather, © 2016

Note: Actual official high and low records may vary slightly from our data, if they occured in-between our weather recording intervals... More about our weather records

Advertising

Edmonton Weather History for the Previous 24 Hours

Scroll right to see more
 ConditionsComfort  
Time TempWeatherWind HumidityBarometerVisibility
6:00 AM
Sun, Jun 26
58 °FCool.7 mph80%30.09 "HgN/A
5:00 AM58 °FCool.9 mph82%30.06 "HgN/A
4:00 AM57 °FCool.6 mph86%30.06 "HgN/A
3:00 AM57 °FCool.7 mph86%30.06 "HgN/A
2:00 AM59 °FCool.9 mph77%30.03 "HgN/A
1:00 AM59 °FCool.8 mph79%30.01 "HgN/A
12:00 AM61 °FCool.9 mph79%30.00 "HgN/A
11:00 PM
Sat, Jun 25
62 °FCool.7 mph77%29.99 "HgN/A
10:00 PM63 °FMild.7 mph73%29.97 "HgN/A
9:00 PM65 °FMild.8 mph69%29.95 "HgN/A
8:00 PM66 °FMild.7 mph65%29.94 "HgN/A
7:00 PM67 °FMild.8 mph65%29.93 "HgN/A
6:00 PM68 °FMild.9 mph64%29.90 "HgN/A
5:00 PM73 °FMild.10 mph56%29.88 "HgN/A
4:00 PM72 °FMild.8 mph55%29.89 "HgN/A
3:00 PM67 °FMild.9 mph67%29.89 "HgN/A
2:00 PM69 °FMild.13 mph61%29.88 "HgN/A
1:00 PM66 °FMild.12 mph70%29.89 "HgN/A
12:00 PM64 °FMild.13 mph76%29.89 "HgN/A
11:00 AM60 °FCool.10 mph87%29.88 "HgN/A
10:00 AM59 °FCool.8 mph90%29.89 "HgN/A
9:00 AM57 °FCool.8 mph92%29.88 "HgN/A
8:00 AM56 °FCool.8 mph93%29.88 "HgN/A
7:00 AM56 °FCool.7 mph93%29.86 "HgN/A
Weather by CustomWeather, © 2016

See weather overviewHow to use our weather pages